Miscellaneous Local Product
Issued by NWS North Platte, NE

Home | Current Version | Previous Version | Graphics & Text | Print | Product List | Glossary On
Versions: 1 2 3 4 5 6 7 8 9 10 11 12 13 14 15 16 17 18 19 20 21 22 23 24 25 26 27 28 29 30 31 32 33 34 35 36 37 38 39 40 41 42 43 44 45 46 47 48 49 50
000
AXUS43 KLBF 290910
MISLBF


WESTERN AND NORTH CENTRAL NEBRASKA HOURLY WEATHER ROUNDUP
NATIONAL WEATHER SERVICE NORTH PLATTE NE
400 AM CDT MON MAY 29 2017

NOTE: "FAIR" INDICATES FEW OR NO CLOUDS BELOW 12,000 FEET WITH NO
SIGNIFICANT WEATHER AND/OR OBSTRUCTIONS TO VISIBILITY.

NOTE: STATIONS NOT REPORTING VARIABLES SUCH AS SKY/WEATHER OR
PRESSURE ARE PROVIDED BY RAWS AND APRS NETWORKS AND ARE NOT UNDER
NATIONAL WEATHER SERVICE QUALITY CONTROL.

...OBSERVATIONS IN AND NEAR THE EASTERN PANHANDLE OF NEBRASKA...

CITY           SKY/WX    TMP DP  RH WIND       PRES   REMARKS
PINE RIDGE     CLEAR     47  44  90 W3        30.11F
GORDON         FAIR      45  41  88 W8        30.10S
CHADRON        CLEAR     50  44  80 NW12      30.12F
ALLIANCE       CLEAR     44  42  93 W12       30.14R
SIDNEY         CLEAR     44  41  89 NW8       30.19S
CRESCENT LAKE    N/A     50  45  83 W9          N/A
$$

...OBSERVATIONS IN NORTHERN NEBRASKA AND FAR SOUTHERN SOUTH DAKOTA...

CITY           SKY/WX    TMP DP  RH WIND       PRES   REMARKS
WINNER         FAIR      50  44  80 NW8       30.02R
VALENTINE      CLEAR     50  44  80 NW9       30.04S
THEDFORD       CLEAR     51  46  84 W10       30.07R
AINSWORTH      CLEAR     51  47  87 W5        30.03S
O`NEILL        CLEAR     52  45  77 NW8       29.98S
ORD            CLEAR     54  45  71 NW13      29.98S
BROKEN BOW     CLEAR     54  46  74 NW16      30.02S
VALENTINE NWR    N/A     51  45  81 NW7         N/A
HALSEY           N/A     53  45  74 W9          N/A
BUTTE            N/A     49  44  84 NW3         N/A
CHAMBERS         N/A     53  47  80 CALM        N/A
EWING            N/A     54  47  77 NW7         N/A
$$

...OBSERVATIONS IN SOUTHWEST NEBRASKA AND FAR NORTHEAST COLORADO...

CITY           SKY/WX    TMP DP  RH WIND       PRES   REMARKS
WRAY           FAIR      45  45 100 SW10      30.16S
IMPERIAL       CLEAR     51  44  77 W9        30.13S
OGALLALA       CLEAR     48  45  89 W6        30.12S
NORTH PLATTE   CLEAR     50  47  89 W10       30.08S
MCCOOK         CLEAR     49  46  90 W7        30.09S
LEXINGTON      CLEAR     51  46  84 NW9       30.05R
STAPLETON        N/A     51  46  82 CALM        N/A
GOTHENBURG       N/A     52  43  71 W6          N/A
CALLAWAY         N/A     51  45  81 NW10        N/A
$$

...OBSERVATIONS IN CENTRAL LINCOLN COUNTY AREA...

CITY           SKY/WX    TMP DP  RH WIND       PRES   REMARKS
N.P. AIRPORT   CLEAR     50  47  89 W10       30.08S
N.P. DOWNTOWN    N/A     52  46  80 W3          N/A
N.P. SOUTHEAST   N/A     53  46  78 NW6         N/A
N.P. HILLCREST   N/A     48  44  85 W7          N/A
$$

...SOME OBSERVATIONS FROM AROUND THE REGION...

CITY           SKY/WX    TMP DP  RH WIND       PRES   REMARKS
DENVER         PTCLDY    49  44  83 SW7       30.27F
LIMON          CLOUDY    44  42  93 NW3       30.26S
ASPEN          CLOUDY    36  28  73 S8        30.31F WCI  30
LARAMIE        CLEAR     37  34  89 SE7       30.32F WCI  32
CASPER         PTCLDY    44  42  93 SW8       30.25F
CHEYENNE       CLEAR     45  36  70 W8        30.28S
SCOTTSBLUFF    MOCLDY    50  43  77 NW10      30.18S
GRAND ISLAND   CLEAR     54  47  77 W10       30.00R
OMAHA          CLEAR     58  45  62 CALM      29.91R
SIOUX FALLS    CLEAR     51  44  77 W5        29.89F
PIERRE         PTCLDY    50  39  66 NW12      30.00S
RAPID CITY     CLEAR     45  36  70 N12       30.12R
BISMARCK       CLEAR     50  42  74 NW13G23   29.99R
KANSAS CITY    CLEAR     55  51  86 S9        29.94F
HILL CITY      CLEAR     55  49  80 NW7       30.08S
WICHITA        CLEAR     56  48  74 SW6       30.01F
DODGE CITY     CLEAR     53  44  71 W13G20    30.10R
OKLAHOMA CITY  CLOUDY    57  48  72 CALM      30.05F
DALLAS         CLOUDY    70  67  90 NW9       29.97F
AMARILLO       CLEAR     56  37  49 SE10      30.18S
$$




USA.gov is the U.S. government's official web portal to all federal, state and local government web resources and services.